Location: Girdwood
(60.9430°N, 149.1660°W)
Time: 08:58:25
(UTC-08:00)

Iridium 86 - Visible Passes

Search period start: 27 August 2016 00:00
Search period end: 06 September 2016 00:00
Orbit: 776 x 779 km, 86.4° (Epoch: 27 August)

Date Brightness Start Highest point End Pass type
(mag) Time Alt. Az. Time Alt. Az. Time Alt. Az.
27 Aug 7.6 00:06:32 10° NNW 00:10:44 25° WNW 00:14:54 10° SW visible
27 Aug 7.0 23:32:42 10° NNW 23:37:27 36° W 23:42:11 10° SW visible
28 Aug 6.3 22:59:00 10° NNW 23:04:06 53° W 23:09:09 10° SSW visible
29 Aug 8.2 00:41:11 10° NW 00:43:44 14° WNW 00:46:17 10° W visible
29 Aug 5.7 22:25:22 10° N 22:30:37 80° W 22:35:51 10° S visible
30 Aug 7.9 00:06:55 10° NNW 00:10:38 20° WNW 00:14:20 10° WSW visible
30 Aug 5.6 21:51:48 10° N 21:57:03 70° E 22:02:16 10° SSE visible
30 Aug 7.4 23:32:59 10° NNW 23:37:25 29° WNW 23:41:50 10° SW visible
31 Aug 6.8 22:59:13 10° NNW 23:04:06 42° W 23:09:00 10° SSW visible
01 Sep 8.4 00:42:17 10° NW 00:43:32 11° WNW 00:44:47 10° WNW visible
01 Sep 6.1 22:25:32 10° N 22:30:42 63° W 22:35:52 10° S visible
02 Sep 8.2 00:07:24 10° NNW 00:10:29 16° WNW 00:13:34 10° WSW visible
02 Sep 5.6 21:51:55 10° N 21:57:12 88° E 22:02:26 10° S visible
02 Sep 7.8 23:33:18 10° NNW 23:37:21 23° WNW 23:41:22 10° SW visible
03 Sep 7.2 22:59:27 10° NNW 23:04:06 33° W 23:08:44 10° SW visible
04 Sep 6.5 22:25:43 10° NNW 22:30:46 49° W 22:35:46 10° SSW visible
05 Sep 8.4 00:08:07 10° NW 00:10:19 13° WNW 00:12:31 10° W visible
05 Sep 5.8 21:52:04 10° N 21:57:18 73° W 22:02:31 10° S visible
05 Sep 8.2 23:33:43 10° NNW 23:37:14 19° WNW 23:40:45 10° WSW visible
